TimeHST,TemperatureF,Dew PointF,Humidity,Sea Level PressureIn,VisibilityMPH,Wind Direction,Wind SpeedMPH,Gust SpeedMPH,PrecipitationIn,Events,Conditions,WindDirDegrees,DateUTC
12:56 AM,44.6,33.1,64,30.21,12.0,WNW,2.3,-,N/A,,Clear,300,2013-12-27 10:56:00
1:56 AM,41.2,31.3,68,30.20,12.0,East,2.3,-,N/A,,Clear,100,2013-12-27 11:56:00
2:56 AM,41.0,29.8,64,30.19,12.0,ESE,4.6,-,N/A,,Clear,120,2013-12-27 12:56:00
3:56 AM,40.3,30.0,67,30.18,12.0,NNE,2.3,-,N/A,,Clear,20,2013-12-27 13:56:00
4:56 AM,39.4,26.6,60,30.18,12.0,ESE,4.6,-,N/A,,Clear,120,2013-12-27 14:56:00
5:56 AM,43.2,27.1,53,30.18,12.0,West,4.6,-,N/A,,Clear,280,2013-12-27 15:56:00
6:56 AM,45.1,32.0,60,30.20,12.0,East,10.4,17.3,N/A,,Clear,100,2013-12-27 16:56:00
7:56 AM,50.0,41.2,72,30.21,12.0,ESE,10.4,24.2,N/A,,Clear,120,2013-12-27 17:56:00
8:54 AM,55.4,42.8,63,30.22,12.0,South,12.7,19.6,N/A,,Clear,180,2013-12-27 18:54:00
8:56 AM,55.6,45.3,68,30.23,12.0,South,11.5,19.6,N/A,,Clear,180,2013-12-27 18:56:00
8:57 AM,55.4,46.4,72,30.23,12.0,SE,13.8,20.7,N/A,,Clear,140,2013-12-27 18:57:00
9:51 AM,57.2,50.0,77,30.24,12.0,South,12.7,27.6,N/A,,Clear,180,2013-12-27 19:51:00
9:56 AM,57.9,49.1,72,30.24,12.0,SE,12.7,27.6,N/A,,Clear,140,2013-12-27 19:56:00
10:27 AM,60.8,48.2,63,30.22,12.0,East,17.3,32.2,N/A,,Clear,90,2013-12-27 20:27:00
10:28 AM,60.8,46.4,59,30.22,12.0,NE,16.1,32.2,N/A,,Clear,40,2013-12-27 20:28:00
10:56 AM,62.2,42.4,48,30.22,12.0,NNW,5.8,-,N/A,,Scattered Clouds,340,2013-12-27 20:56:00
11:56 AM,62.2,44.4,52,30.22,12.0,WSW,16.1,20.7,N/A,,Partly Cloudy,250,2013-12-27 21:56:00
12:56 PM,60.6,47.7,62,30.20,12.0,West,10.4,17.3,N/A,,Mostly Cloudy,260,2013-12-27 22:56:00
1:56 PM,62.1,49.3,63,30.17,12.0,West,9.2,-,N/A,,Mostly Cloudy,260,2013-12-27 23:56:00
2:16 PM,60.8,50.0,68,30.17,12.0,NNE,5.8,-,N/A,,Overcast,30,2013-12-28 00:16:00
2:41 PM,62.6,50.0,63,30.17,12.0,SSW,10.4,16.1,N/A,,Mostly Cloudy,200,2013-12-28 00:41:00
2:56 PM,60.3,52.2,75,30.17,12.0,WSW,5.8,13.8,N/A,,Mostly Cloudy,250,2013-12-28 00:56:00
3:01 PM,60.8,51.8,72,30.16,12.0,West,10.4,15.0,N/A,,Mostly Cloudy,260,2013-12-28 01:01:00
3:16 PM,60.8,51.8,72,30.17,12.0,West,6.9,16.1,N/A,,Mostly Cloudy,260,2013-12-28 01:16:00
3:21 PM,60.8,51.8,72,30.16,12.0,WSW,6.9,-,N/A,,Mostly Cloudy,250,2013-12-28 01:21:00
3:36 PM,59.0,51.8,77,30.17,12.0,West,10.4,-,N/A,,Mostly Cloudy,270,2013-12-28 01:36:00
3:56 PM,59.5,50.7,73,30.18,12.0,South,10.4,16.1,N/A,,Mostly Cloudy,180,2013-12-28 01:56:00
4:56 PM,57.2,54.3,90,30.18,12.0,West,9.2,-,N/A,,Overcast,260,2013-12-28 02:56:00
5:06 PM,57.2,53.6,88,30.19,12.0,West,8.1,-,N/A,,Overcast,270,2013-12-28 03:06:00
5:16 PM,57.2,53.6,88,30.19,12.0,West,8.1,-,N/A,,Mostly Cloudy,270,2013-12-28 03:16:00
5:56 PM,56.7,54.5,92,30.20,12.0,WSW,6.9,-,N/A,,Mostly Cloudy,250,2013-12-28 03:56:00
6:01 PM,57.2,55.4,94,30.20,11.0,West,5.8,-,N/A,,Mostly Cloudy,260,2013-12-28 04:01:00
6:21 PM,55.4,53.6,94,30.20,12.0,West,5.8,-,N/A,,Mostly Cloudy,260,2013-12-28 04:21:00
6:51 PM,55.4,53.6,94,30.22,6.0,West,3.5,-,N/A,,Overcast,260,2013-12-28 04:51:00
6:56 PM,55.4,54.1,96,30.22,10.0,WSW,2.3,-,N/A,,Overcast,250,2013-12-28 04:56:00
7:21 PM,55.4,53.6,94,30.23,12.0,SSE,4.6,-,N/A,,Overcast,150,2013-12-28 05:21:00
7:26 PM,55.4,51.8,88,30.23,12.0,South,4.6,-,N/A,,Mostly Cloudy,170,2013-12-28 05:26:00
7:41 PM,55.4,51.8,88,30.23,12.0,SE,4.6,-,N/A,,Overcast,130,2013-12-28 05:41:00
7:56 PM,54.3,51.3,89,30.23,12.0,SE,9.2,-,N/A,,Overcast,140,2013-12-28 05:56:00
8:41 PM,53.6,50.0,88,30.24,12.0,SE,8.1,-,N/A,,Mostly Cloudy,140,2013-12-28 06:41:00
8:56 PM,53.2,49.5,87,30.24,12.0,ESE,3.5,-,N/A,,Mostly Cloudy,120,2013-12-28 06:56:00
9:56 PM,52.2,49.6,91,30.26,12.0,SE,4.6,-,N/A,,Scattered Clouds,130,2013-12-28 07:56:00
10:56 PM,50.9,48.6,92,30.25,12.0,ESE,5.8,-,N/A,,Clear,120,2013-12-28 08:56:00
11:56 PM,51.8,47.5,85,30.24,12.0,ESE,3.5,-,N/A,,Mostly Cloudy,110,2013-12-28 09:56:00